Overview Statistics Trail Chart Weather Telemetry Raw packets
 

This is the latest recevied weather packets stored in our database for station/object VE8SKI. If no packets are shown the sender has not sent any weather packets the latest 10 day(s).

<< 53 54 55 56 57 58 59 >>
Time Temp. Humidity Pressure Rain* Wind** Luminosity Snow
1777750907 6.11° C 59% 1009.5 hPa 0 mm 3.13 m/s, 82° - -
1777750607 6.11° C 59% 1009.5 hPa 0 mm 3.13 m/s, 125° - -
1777750307 6.67° C 60% 1009.5 hPa 0 mm 2.24 m/s, 70° - -
1777750008 6.67° C 58% 1009.6 hPa 0 mm 2.24 m/s, 96° - -
1777749706 6.11° C 58% 1009.7 hPa 0 mm 2.24 m/s, 75° - -
1777749406 6.11° C 58% 1009.7 hPa 0 mm 2.24 m/s, 127° - -
1777749121 6.11° C 58% 1009.8 hPa 0 mm 2.68 m/s, 96° - -
1777748807 6.11° C 58% 1009.9 hPa 0 mm 2.24 m/s, 131° - -
1777748507 6.67° C 58% 1009.9 hPa 0 mm 2.24 m/s, 108° - -
1777748207 6.67° C 58% 1010.1 hPa 0 mm 2.24 m/s, 145° - -
1777747905 6.11° C 59% 1010.2 hPa 0 mm 0.45 m/s, 97° - -
1777747606 6.11° C 59% 1010.2 hPa 0 mm 2.24 m/s, 107° - -
1777747306 6.11° C 60% 1010.2 hPa 0 mm 1.79 m/s, 142° - -
1777747006 5.56° C 59% 1010.3 hPa 0 mm 2.68 m/s, 215° - -
1777746707 6.11° C 59% 1010.4 hPa 0 mm 2.24 m/s, 198° - -
1777746407 5.56° C 61% 1010.5 hPa 0 mm 1.79 m/s, 125° - -
1777746105 5.56° C 61% 1010.6 hPa 0 mm 2.24 m/s, 148° - -
1777745805 5.56° C 61% 1010.6 hPa 0 mm 2.68 m/s, 204° - -
1777745506 5.56° C 60% 1010.8 hPa 0 mm 3.13 m/s, 253° - -
1777745206 5.56° C 61% 1010.8 hPa 0 mm 1.34 m/s, 233° - -
1777744907 5.56° C 61% 1010.9 hPa 0 mm 1.79 m/s, 211° - -
1777744607 5.56° C 62% 1011.2 hPa 0 mm 1.34 m/s, 226° - -
1777744305 5.56° C 60% 1011.4 hPa 0 mm 1.79 m/s, 121° - -
1777744005 5.56° C 60% 1011.4 hPa 0 mm 1.79 m/s, 183° - -
1777743706 5.56° C 61% 1011.5 hPa 0 mm 1.34 m/s, 207° - -

* Rain latest hour (hover to see other rain measurements)
** Current wind speed in m/s (hover to see current wind gust speed)